Regional Weather Roundup
Issued by NWS San Diego, CA

Home | Current Version | Previous Version | Text Only | Print | Product List | Glossary On
Versions: 1 2 3 4 5 6 7 8 9 10 11 12 13 14 15 16 17 18 19 20 21 22 23 24 25 26 27 28
000
ASUS46 KSGX 250411
RWRSGX

SAN DIEGO HOURLY WEATHER ROUNDUP
NATIONAL WEATHER SERVICE SAN DIEGO CA
900 PM PDT TUE MAY 24 2016

NOTE: "FAIR" INDICATES FEW OR NO CLOUDS BELOW 12,000 FEET WITH NO
SIGNIFICANT WEATHER AND/OR OBSTRUCTIONS TO VISIBILITY.

CAZ042-043-060-061-PZZ750-775-250500-

GREATER SAN DIEGO AREA

CITY           SKY/WX    TMP DP  RH WIND       PRES   REMARKS
LINDBERGH FLD  MOCLDY    64  52  64 W8        30.06S
POINT LOMA       N/A     60  51  72 NW12        N/A
NATIONAL CITY    N/A     63  54  73 W2        30.06R
CHULA VISTA      N/A     62  55  78 W2        29.98S
IMPERIAL BEACH MOCLDY    65  52  62 NW9       30.06R
BROWN FIELD    PTCLDY    58  52  80 W6        30.05R
MIRAMAR MCAS   CLOUDY    63  49  60 NW8       30.05R
MONTGOMERY FLD CLOUDY    62  49  62 NW7       30.06R

$$

NORTH SAN DIEGO COUNTY

CITY           SKY/WX    TMP DP  RH WIND       PRES   REMARKS
CAMP PENDLETON MOCLDY    61  53  75 W6        30.04S
OCEANSIDE AP   CLOUDY    62  51  67 W6        30.04R
OCEANSIDE HBR    N/A     62  56  80 SW9       30.07R
VISTA            N/A     60  53  77 CALM      30.03R
CARLSBAD       MOCLDY    61  51  70 W5        30.04S
DEL MAR          N/A     62  54  75 CALM      30.08R
LA JOLLA SCRIP   N/A     61  55  80 W3        30.05R
FALLBROOK        N/A     60  55  84 SW6       30.03R
ESCONDIDO        N/A     60  52  73 SW9       30.06S
SAN MARCOS       N/A     59  49  68 CALM      30.03S
POWAY            N/A     60  51  70 CALM      30.06S

$$

EAST SAN DIEGO COUNTY

CITY           SKY/WX    TMP DP  RH WIND       PRES   REMARKS
RAMONA         CLOUDY    55  48  77 W9        30.05R
SANTEE LAKES     N/A     61  52  73 CALM      30.05R
LA MESA          N/A     59  52  77 W3        29.98S
DESCANSO N       N/A     49  46  89 W8        29.95R
MT. LAGUNA OBS   N/A     37  36  98 W1        29.63R
CAMPO            N/A     53  45  74 SW7       30.01R

$$

ORANGE COUNTY AND THE LOS ANGELES BASIN

CITY           SKY/WX    TMP DP  RH WIND       PRES   REMARKS
JOHN WAYNE AP  PTCLDY    61  51  70 W6        30.05R
LAKE FOREST FR   N/A     58  49  74 W2        29.94R
HUNTINGTON BCH   N/A     61  54  78 W7        30.07R
LOS ALAMITOS   MOCLDY    62  53  71 SW9       30.04R
FULLERTON      CLOUDY    63  51  65 VRB6      30.03R
LONG BEACH     MOCLDY    62  52  69 W10       30.04R
L.A. AP        MOCLDY    60  53  77 W7        30.04R
L.A. DOWNTOWN  CLOUDY    62  52  69 W3        30.04R

$$

THE INLAND EMPIRE

CITY           SKY/WX    TMP DP  RH WIND       PRES   REMARKS
CORONA         CLEAR     59  51  75 W13G20    30.03
CHINO          PTCLDY    59  50  72 W15       30.04R
ONTARIO        PTCLDY    59  49  69 W13       30.02R
SAN BERNARDINO CLOUDY    63  48  59 W12       30.04R
RIVERSIDE AP   CLEAR     60  50  69 W14G20    30.02R
MORENO VALLEY    N/A     58  54  85 E2        28.13R
MARCH ARB      CLOUDY    59  50  73 N6        30.03R
HORSETHIEF CYN   N/A     59  43  56 CALM      30.04R
PERRIS           N/A     58  51  80 S7        30.02R
HEMET EAST       N/A     55  45  68 CALM      29.94R
FRENCH VALLEY  CLOUDY    57  48  72 S12       30.04R
TEMECULA         N/A     58  52  80 SW8       30.01R

$$

SAN BERNARDINO AND RIVERSIDE COUNTY MOUNTAINS

CITY           SKY/WX    TMP DP  RH WIND       PRES   REMARKS
BIG BEAR AP    PTCLDY    37  32  81 W5        30.07S WCI  34
PINE COVE        N/A     39  38  95 N3        30.02R

$$

SOUTHERN DESERT INCLUDING THE COACHELLA VALLEY

CITY           SKY/WX    TMP DP  RH WIND       PRES   REMARKS
PALM SPRINGS   PTCLDY    75  37  25 NW5       29.88R
THOUSAND PALMS   N/A     70  46  42 W18       29.86R
PALM DESERT      N/A     75  43  31 CALM      27.40F
THERMAL        MOCLDY    74  45  35 N20G29    29.84R
BLYTHE         PTCLDY    74  42  31 SW23      29.85S
IMPERIAL AP    MOCLDY    70  44  39 W26G35    29.86S
EL CENTRO NAS  MOCLDY    70  42  36 W26       29.91R
YUMA AZ        PTCLDY    74  42  31 NW13      29.88
MEXICALI       CLEAR     72  41  33 W16       29.88S

$$

UPPER DESERT

CITY           SKY/WX    TMP DP  RH WIND       PRES   REMARKS
VICTORVILLE AP CLEAR     57  34  41 SW6       29.99R
HESPERIA         N/A     53  46  76 NW8       30.09R
PALMDALE       CLEAR     57  42  57 SW21G30   29.99R
LANCASTER      CLEAR     57  43  59 SW21G32   29.99R
EDWARDS AFB    PTCLDY    58  42  55 SW22      29.95R
DAGGETT        CLEAR     66  40  38 SW20      29.92R
29 PALMS N     PTCLDY    68  32  26 NW15      29.97R
NEEDLES        MOCLDY    80  30  16 S13       29.83R

$$

REGIONAL REPORTS

CITY           SKY/WX    TMP DP  RH WIND       PRES   REMARKS
SANTA BARBARA  MOCLDY    58  53  84 CALM      30.02S
SANDBERG       CLOUDY    49  42  77 S10G18    30.05R
LAS VEGAS NV   PTCLDY    73  29  19 SW9       29.83R
PHOENIX AZ     CLEAR     82  27  13 W10       29.86R
TIJUANA        MOCLDY    59  50  72 W9        30.07S
ENSENADA NW      N/A     61  32  33 N6        30.02R

$$

OFFSHORE ISLANDS

CITY           SKY/WX    TMP DP  RH WIND       PRES   REMARKS
CATALINA ARPT  MOCLDY    52  49  89 W14       30.05R
SAN NICOLAS IS CLEAR    N/A N/A N/A W8        30.05R

$$

MARINE AND OFFSHORE BUOY REPORTS

STATION/POSITION SKY/WX   TEMP    WIND        PRES    SWELL
                          AIR SEA DIR/SP/G            HT/PER/DIR
                          (F)     (DEG/KT/KT) (MB)    (FT/S/D)
TANNER BANKS               60 62  260/  8/ 10 1017.6R   2/230/14
S CLEMENTE BASIN           60 62  260/ 12/ 16 1017.3S   2/210/12
SAN NICOLAS IS.               61                N/A     2/200/15
SO. S. ROSA ISLA           59 58  280/ 12/ 14 1017.2R   2/310/ 8
W. S. BARBARA CH           57 55  320/  6/  8 1016.9R   2/310/ 8
M. S. BARBARA CH           58 60  260/ 14/ 17 1017.0R
S. MONICA BASIN            60 64  270/ 12/ 14 1017.2S   2/150/15
S PEDRO CHANNEL               64                N/A
OCEANSIDE OFFSHR              65                N/A     2/210/14
TORREY PINES OTR              66                N/A     2/200/15
LA JOLLA 1                 62 68  310/  5/  7 1017.2R
SAN DIEGO BAY                 69              1017.6R
POINT LOMA SOUTH              66                N/A     2/190/15

$$





USA.gov is the U.S. government's official web portal to all federal, state and local government web resources and services.